Theta_e
315 315 316 316 316 316 316 316 317 317 317 318 318 318 319 319 319 319 320 320 319 319 318 318 319 319 321 320 319 326 342 334 319 317 318 315 314 313 310 314 315 312 314 317 319 319 319
314 314 315 315 315 316 316 316 317 317 317 317 318 318 318 319 319 319 319 318 318 317 318 320 321 318 320 312 328 324 324 323 320 317 318 318 315 316 313 314 313 315 315 316 317 317 318
314 314 314 315 315 315 315 315 316 317 317 318 318 318 318 318 318 318 318 317 316 317 317 322 320 322 317 317 329 326 321 321 321 319 316 319 319 315 314 311 316 315 310 313 313 316 315
313 313 314 314 315 315 315 315 316 317 318 318 318 317 318 318 318 318 318 317 316 317 319 322 320 323 316 324 328 325 323 320 322 321 319 321 320 316 314 316 314 311 311 305 311 314 315
313 314 314 314 315 316 315 315 316 317 318 318 318 317 317 318 318 318 317 316 316 318 322 323 322 323 314 321 319 326 323 315 318 318 319 320 318 314 314 309 307 308 303 305 308 313 313
315 314 315 315 316 316 316 316 317 317 318 318 317 317 316 317 317 317 315 315 322 320 324 326 325 317 319 315 320 323 322 317 314 314 314 314 312 309 309 308 300 303 304 306 306 310 311
316 315 315 316 316 316 316 316 317 317 317 318 317 317 316 316 316 315 315 319 315 318 318 316 315 314 314 321 325 320 318 314 314 312 307 311 306 303 307 309 309 308 307 306 309 311 309
317 317 316 316 316 316 316 316 317 317 317 317 317 316 316 316 316 315 317 314 312 313 305 313 314 314 318 319 314 316 317 310 309 305 309 307 303 309 311 310 308 308 306 306 309 312 311
318 317 317 317 317 316 316 317 317 317 316 316 316 315 315 315 315 318 316 316 317 316 307 311 315 312 313 316 312 314 313 311 308 307 308 305 307 311 309 308 307 307 306 306 307 311 312
318 318 318 317 317 317 317 317 317 317 317 316 315 315 315 313 315 319 315 316 316 317 304 309 310 312 314 314 309 318 316 312 310 306 307 307 312 309 307 306 307 303 310 309 308 307 302
320 319 318 318 317 317 317 317 317 317 316 316 315 315 315 313 318 316 318 319 316 315 295 309 310 318 314 310 313 313 319 314 307 308 308 305 307 307 305 306 309 306 310 309 309 307 307
320 319 319 319 318 317 316 316 316 316 316 315 315 315 314 319 320 320 321 317 315 302 295 306 311 309 308 310 310 314 314 316 313 309 309 308 312 310 310 311 310 311 310 309 309 307 300
319 319 319 319 318 317 316 316 316 316 315 314 314 313 313 320 315 321 320 313 300 297 309 304 306 308 307 306 308 310 308 307 303 300 300 305 307 311 313 308 311 310 308 299 298 299 298
318 318 318 319 318 318 316 316 316 315 314 314 312 311 318 321 323 322 315 305 294 304 305 310 308 308 304 307 307 308 307 303 307 306 301 300 298 309 312 309 308 309 309 301 296 296 299
318 318 318 319 318 317 316 316 315 314 313 312 309 320 319 323 325 321 308 297 298 304 309 307 306 303 304 306 307 307 306 305 306 307 301 300 301 311 311 313 312 308 305 311 305 306 301
318 318 318 318 317 317 316 316 315 315 314 312 314 315 316 323 325 317 304 297 302 307 310 308 301 304 302 305 304 305 306 309 307 308 311 309 301 310 310 313 313 311 312 304 305 299 297
317 317 317 317 317 316 316 316 315 315 313 310 314 312 319 323 321 309 299 301 304 308 310 306 304 303 304 303 306 305 305 309 310 308 310 309 308 304 310 307 306 308 307 309 310 307 299
317 317 318 317 317 317 316 315 316 315 311 309 315 307 320 321 307 306 302 305 304 306 310 308 308 306 304 305 306 307 305 308 312 311 305 309 312 304 307 313 313 312 309 312 304 304 307
316 317 318 318 317 316 315 315 317 316 312 315 311 312 320 317 301 302 306 305 307 306 306 306 305 307 308 306 303 309 310 312 312 310 308 312 309 300 303 309 312 309 310 312 318 318 308
316 316 316 316 315 315 315 315 316 316 315 313 312 305 311 313 311 306 305 306 303 308 306 307 306 307 306 304 308 307 309 311 312 311 316 320 314 308 301 304 309 307 308 310 315 308 306
315 315 315 314 314 314 313 316 316 315 314 313 312 308 310 305 306 306 307 309 305 303 307 309 306 305 304 303 304 304 310 312 316 314 313 314 306 308 308 308 308 309 307 308 306 309 303
312 313 312 312 311 312 313 315 316 315 313 312 310 308 310 308 310 309 304 305 306 308 308 307 306 306 306 306 307 304 308 311 312 316 314 318 306 309 306 307 308 306 308 310 308 309 309
310 310 311 311 309 311 312 313 313 314 312 314 317 316 310 307 307 305 306 306 307 309 311 311 310 307 307 309 314 316 314 315 317 312 316 317 310 309 301 305 305 301 307 309 309 312 309
310 310 310 309 309 310 312 311 311 311 313 314 313 314 306 303 305 304 306 308 307 309 307 312 312 310 314 319 317 316 312 314 313 315 322 317 316 311 305 307 295 307 314 313 310 312 312
310 310 310 309 309 309 310 310 308 310 312 313 317 313 309 303 306 307 306 309 309 311 309 309 312 319 320 314 308 306 305 305 307 312 314 325 319 308 303 301 304 309 312 309 310 308 313
310 310 309 309 309 309 309 307 307 309 312 313 315 317 312 306 305 308 307 309 306 308 309 310 316 322 319 311 307 301 296 300 299 304 316 318 320 312 308 299 295 305 314 317 315 305 316
309 309 309 309 308 308 307 307 307 310 312 312 315 323 312 307 311 311 306 306 312 309 308 313 314 314 320 309 303 301 300 304 298 300 302 305 307 304 302 302 303 312 313 316 303 307 319
309 309 309 309 309 308 308 307 308 310 311 312 314 322 313 309 311 312 312 308 309 311 306 311 309 314 313 308 304 304 304 305 304 307 306 303 301 301 303 299 297 316 314 308 318 323 324
308 309 309 309 309 309 308 308 307 309 310 312 311 319 319 311 310 317 317 317 314 313 309 311 313 317 315 311 312 311 305 304 304 298 312 300 308 305 308 308 320 323 321 323 325 323 321
Wind_Speed
3 5 7 8 9 10 11 11 12 13 15 16 17 19 20 21 21 21 22 22 22 21 19 18 14 9 7 8 8 13 12 9 9 9 12 12 13 13 15 12 13 10 6 4 3 6 3
1 3 5 7 8 9 11 12 12 13 14 16 17 19 20 22 22 23 22 22 21 20 18 16 9 4 7 11 14 15 14 12 11 12 16 16 10 13 14 14 12 13 5 7 5 8 3
1 1 3 5 7 9 11 12 13 14 15 16 18 20 21 22 24 24 23 22 21 19 17 13 3 6 10 13 9 15 14 13 13 14 13 11 13 13 16 14 16 10 6 6 7 5 4
3 1 2 4 5 7 10 12 13 14 14 16 18 20 21 23 24 26 25 23 20 18 13 7 3 8 9 10 4 10 13 12 12 13 14 13 7 15 16 14 7 9 10 11 13 8 3
4 3 2 3 4 6 8 10 12 14 15 16 17 19 23 24 26 28 26 25 20 14 9 6 7 8 14 5 11 12 12 13 11 11 8 8 8 14 11 15 8 14 12 17 13 11 9
6 4 3 3 4 6 8 10 11 12 15 16 18 20 23 25 28 28 28 25 2 5 8 9 11 10 12 13 12 13 11 12 13 12 12 11 10 13 14 11 12 15 17 14 12 11 12
6 5 4 4 5 7 8 10 12 13 15 17 19 20 23 26 28 29 17 7 5 6 9 15 15 14 7 5 7 8 11 14 13 11 14 15 13 15 18 18 18 18 18 19 8 12 11
7 6 5 5 6 7 8 10 11 13 16 18 20 21 24 28 31 29 11 9 10 11 15 17 21 17 19 4 10 13 14 14 14 15 15 15 16 17 16 18 22 20 16 12 18 17 12
8 7 6 5 6 6 8 10 11 13 15 16 19 21 24 28 32 16 13 7 11 16 10 17 20 19 16 13 13 14 17 19 15 16 17 18 18 18 16 18 16 18 15 14 12 10 7
9 8 7 6 6 7 8 9 11 13 15 16 18 19 22 28 10 18 8 15 13 14 8 14 8 8 17 14 16 16 17 16 11 15 17 16 19 17 18 16 10 13 17 18 16 12 11
9 9 8 7 6 7 8 10 11 12 14 16 17 18 19 10 12 9 16 15 14 9 8 5 10 9 8 18 11 17 18 17 18 12 12 17 14 17 13 15 13 16 19 17 10 13 13
10 9 8 7 7 7 8 10 11 12 14 16 17 18 17 11 9 19 14 16 9 7 9 2 8 9 13 15 20 9 13 16 14 15 16 17 16 18 15 16 19 21 20 15 11 11 12
12 10 9 8 7 7 8 10 11 12 13 16 19 19 14 11 9 16 13 10 7 9 6 5 7 8 11 12 18 10 15 13 14 11 11 15 23 20 13 19 21 21 9 7 10 11 9
12 12 10 9 8 7 8 9 11 12 14 17 21 26 11 11 12 13 8 9 9 13 14 11 2 8 12 14 17 16 13 14 15 14 5 9 12 21 15 24 18 18 15 11 13 10 13
14 12 11 10 9 8 8 10 11 11 13 16 24 11 11 12 17 6 7 10 14 16 15 6 11 9 14 15 18 17 16 16 18 18 8 8 19 19 17 16 14 12 19 19 13 13 7
14 13 12 11 10 9 8 9 12 12 12 12 11 12 14 17 11 7 8 16 18 20 5 10 10 14 14 8 16 17 17 19 16 20 16 4 8 15 22 18 19 15 14 10 8 10 6
14 13 12 11 10 9 8 9 10 11 13 9 8 7 0 17 6 8 11 16 19 20 5 5 12 12 11 13 16 17 16 12 21 18 19 13 5 14 17 17 18 16 15 10 10 6 8
15 13 13 12 10 9 8 7 8 9 15 13 6 7 10 6 8 9 13 19 20 16 6 7 9 8 8 12 12 19 13 15 14 21 21 14 4 9 13 12 16 16 16 12 7 7 9
14 13 13 12 9 7 8 5 5 5 9 7 7 11 8 8 9 12 17 20 21 14 11 4 9 14 8 12 5 14 18 10 3 12 17 15 7 6 8 9 9 8 13 8 5 4 5
12 13 12 10 9 7 2 4 4 3 5 6 7 6 8 8 12 17 15 13 16 7 13 6 8 13 8 9 11 14 19 3 2 6 5 3 10 10 9 9 4 6 16 9 4 0 9
13 12 10 9 8 7 3 2 5 3 4 5 6 6 4 4 11 15 15 16 9 14 11 8 8 12 11 6 10 16 19 16 20 4 6 4 7 11 14 4 6 28 16 19 15 16 15
12 12 11 9 8 6 5 1 5 4 3 5 7 9 11 12 10 12 12 14 15 8 5 10 9 11 12 8 11 4 20 6 18 12 7 6 8 11 15 12 25 3 23 23 18 16 13
12 12 11 10 7 6 7 5 2 2 4 7 5 11 5 10 9 9 8 12 13 16 13 8 3 7 5 2 6 8 1 18 6 5 13 8 7 7 13 14 18 17 9 16 4 18 11
13 13 12 10 8 8 9 7 4 3 6 6 7 10 7 9 12 10 15 14 18 4 6 12 4 6 5 5 4 7 6 21 11 15 5 8 8 8 11 12 19 13 3 19 10 9 5
13 13 12 10 9 9 6 8 1 5 8 6 8 7 6 10 12 17 10 9 6 7 6 9 10 8 4 2 3 5 12 13 18 12 17 3 6 6 7 11 1 15 20 16 5 6 6
11 12 12 10 8 10 10 7 8 8 8 6 6 7 7 8 5 15 11 7 6 7 12 16 3 5 2 4 5 8 7 6 5 10 16 3 5 4 8 5 3 2 17 24 20 10 16
12 11 11 12 11 9 10 10 9 10 6 6 5 7 5 9 12 9 7 10 10 7 6 6 10 4 8 5 8 8 11 2 10 15 3 6 7 7 6 3 3 5 9 18 5 2 11
10 11 12 12 11 11 11 9 9 8 5 4 5 5 4 7 11 12 12 8 10 9 7 8 5 7 7 9 9 9 7 7 9 8 8 4 2 4 7 2 4 7 7 2 3 4 4
10 10 11 12 11 10 10 10 8 7 4 7 5 4 4 7 11 15 14 14 11 9 7 8 9 7 6 5 7 5 3 5 10 5 4 4 1 7 8 6 7 5 7 3 4 8 7
Wind_Direction
18 13 11 13 10 4 358 355 348 344 339 335 332 330 329 325 322 318 315 314 312 311 309 306 303 306 280 239 248 140 134 136 178 219 248 233 230 212 239 227 243 248 220 324 71 150 289
15 13 10 9 4 359 355 352 347 342 338 334 330 329 327 323 321 318 315 313 311 308 309 306 296 287 252 256 102 152 166 167 210 208 240 239 228 224 249 240 232 230 175 216 152 195 123
248 348 6 4 358 353 351 347 345 342 338 332 331 329 324 324 320 317 314 313 309 303 304 309 267 252 260 252 131 164 184 189 210 207 232 250 243 230 248 269 252 283 219 204 206 182 202
224 268 338 351 349 347 344 344 342 340 335 331 329 326 324 324 321 315 314 313 303 297 292 293 234 254 262 191 283 178 187 196 210 216 262 297 281 285 256 274 224 240 232 216 204 214 194
229 242 280 323 334 337 339 337 335 334 332 331 329 328 326 325 320 316 317 309 295 279 252 254 241 231 264 99 220 217 207 205 207 231 241 313 287 251 245 255 211 241 225 240 185 168 226
231 248 276 311 329 334 333 332 331 330 331 330 331 330 326 325 319 318 320 297 303 259 221 224 259 270 251 231 195 202 209 224 197 210 222 213 225 226 240 222 210 214 234 245 203 174 243
237 247 278 309 328 334 331 330 329 331 332 332 332 332 328 324 318 318 335 306 290 185 258 274 290 245 289 135 103 201 206 220 198 217 222 208 226 212 218 222 238 208 219 242 216 182 195
235 250 269 293 314 325 325 325 327 330 331 332 332 332 330 325 317 315 292 328 20 321 304 279 266 250 264 231 202 213 190 209 198 213 217 231 229 232 235 218 227 246 253 213 244 165 183
231 243 256 277 300 312 317 323 326 329 330 331 331 332 331 327 316 301 329 1 331 335 285 287 236 224 227 220 248 192 188 214 205 224 216 232 211 235 237 249 233 241 254 268 163 141 226
230 237 249 265 283 300 311 319 325 328 329 330 330 330 331 333 308 330 314 359 331 336 274 259 181 214 206 203 233 247 182 212 223 220 248 237 256 207 225 243 226 252 242 243 206 167 219
226 236 244 257 275 291 307 316 322 326 326 326 328 326 328 317 300 301 316 318 328 291 283 155 113 120 179 191 118 215 177 217 233 228 239 247 228 251 250 214 234 235 246 256 207 202 237
224 229 238 248 266 284 302 311 318 322 321 321 322 320 333 307 254 270 311 322 290 237 248 145 148 193 215 203 230 187 212 206 237 249 266 251 254 238 232 232 218 226 263 214 256 226 212
210 225 233 243 258 277 295 305 312 314 313 315 316 309 301 288 266 324 318 298 244 246 223 250 238 163 210 191 226 165 195 206 223 224 249 277 259 242 212 227 218 222 225 210 217 233 229
209 210 219 235 247 259 277 291 304 309 314 315 315 307 262 243 257 266 287 266 253 268 264 358 347 308 303 213 212 171 207 207 213 248 259 250 249 258 194 221 210 208 214 227 205 223 235
211 209 213 226 238 250 273 294 301 309 316 320 309 296 278 241 229 238 259 238 237 252 335 299 331 287 255 247 259 196 191 222 196 215 208 290 238 239 236 234 220 203 228 236 283 262 248
205 206 215 218 229 243 264 291 304 314 318 330 318 298 260 255 193 201 238 247 268 271 221 313 283 285 305 310 237 246 199 197 209 203 220 277 302 297 198 220 250 219 219 253 256 270 280
202 204 208 212 219 234 252 283 306 318 315 320 281 263 49 191 138 220 232 240 246 247 270 291 274 288 304 319 305 309 243 219 184 199 216 234 247 286 234 197 226 222 232 233 256 264 290
199 202 203 205 214 227 244 276 305 322 321 281 266 272 138 177 210 226 238 240 263 289 162 225 279 304 279 291 310 307 284 245 184 177 204 219 269 291 293 271 219 249 227 250 229 216 256
200 193 191 191 197 216 241 268 279 320 338 316 267 255 245 209 236 234 233 241 252 243 253 228 254 253 276 312 308 298 307 269 291 201 193 193 219 257 327 278 257 273 256 260 208 134 267
180 180 175 181 189 196 222 271 237 282 311 291 275 255 213 206 249 281 294 262 240 209 253 251 241 289 272 292 268 294 321 302 200 255 45 250 222 223 220 245 312 218 244 287 141 243 291
178 178 181 191 198 201 189 263 217 250 285 281 246 252 355 236 222 235 252 277 253 236 190 242 242 251 260 295 274 306 321 355 310 193 263 228 243 261 262 204 295 278 254 228 237 160 217
166 173 180 191 194 203 181 301 190 236 272 260 289 339 352 299 299 296 215 249 274 298 289 180 208 259 242 241 233 201 291 39 281 326 236 234 248 252 270 220 230 288 296 285 249 225 224
175 185 187 190 189 217 185 174 181 254 236 272 348 300 262 295 262 263 253 240 250 268 164 283 272 212 287 74 14 301 21 283 7 276 306 193 229 231 262 254 259 262 202 268 288 302 12
186 181 189 185 203 226 181 179 207 290 272 303 293 313 289 280 267 239 258 262 224 259 253 322 67 258 42 349 324 275 266 262 235 258 227 285 233 251 251 247 246 262 283 198 196 245 51
187 190 187 183 203 207 190 184 245 273 294 274 289 302 305 288 290 299 221 267 271 280 259 271 275 64 59 284 231 218 247 285 292 340 300 256 294 237 248 248 194 24 8 357 275 61 359
188 190 182 185 203 204 206 196 240 245 266 263 275 297 282 295 319 345 333 292 281 264 270 219 163 106 176 256 215 225 218 263 261 339 296 153 306 277 264 113 280 292 303 329 310 61 18
187 185 189 186 198 205 202 208 224 217 204 247 265 292 278 281 280 330 323 346 326 330 284 315 339 254 195 230 241 217 219 183 247 229 336 340 358 336 353 78 146 276 301 297 317 29 346
180 183 188 191 192 201 206 206 203 189 170 218 251 258 265 282 295 333 336 332 331 343 351 4 14 245 249 239 225 227 259 207 232 303 159 181 58 335 329 352 128 341 282 294 202 206 4
171 175 184 187 184 199 209 196 205 196 194 194 262 251 243 263 295 310 298 290 292 316 331 318 292 31 5 304 16 341 79 39 333 268 188 160 321 120 296 120 123 141 88 121 59 82 51